﻿測定場所 (Monitoring sites),日付 (Measurement date),時間 (Measurement time),線量率 最大値 (max) μGy/h,線量率 最小値 (min) μGy/h,線量率 平均値 (average) μGy/h,
調布 (Chofu),2019-03-03,23:01～24:00,0.0449,0.0379,0.0415,
調布 (Chofu),2019-03-03,22:01～23:00,0.0433,0.0348,0.0388,
調布 (Chofu),2019-03-03,21:01～22:00,0.0367,0.0310,0.0337,
調布 (Chofu),2019-03-03,20:01～21:00,0.0343,0.0293,0.0319,
調布 (Chofu),2019-03-03,19:01～20:00,0.0326,0.0279,0.0307,
調布 (Chofu),2019-03-03,18:01～19:00,0.0353,0.0303,0.0327,
調布 (Chofu),2019-03-03,17:01～18:00,0.0378,0.0321,0.0348,
調布 (Chofu),2019-03-03,16:01～17:00,0.0410,0.0347,0.0369,
調布 (Chofu),2019-03-03,15:01～16:00,0.0406,0.0346,0.0376,
調布 (Chofu),2019-03-03,14:01～15:00,0.0395,0.0344,0.0367,
調布 (Chofu),2019-03-03,13:01～14:00,0.0405,0.0353,0.0369,
調布 (Chofu),2019-03-03,12:01～13:00,0.0423,0.0360,0.0388,
調布 (Chofu),2019-03-03,11:01～12:00,0.0405,0.0349,0.0372,
調布 (Chofu),2019-03-03,10:01～11:00,0.0414,0.0345,0.0371,
調布 (Chofu),2019-03-03,09:01～10:00,0.0406,0.0352,0.0371,
調布 (Chofu),2019-03-03,08:01～09:00,0.0395,0.0339,0.0363,
調布 (Chofu),2019-03-03,07:01～08:00,0.0355,0.0293,0.0324,
調布 (Chofu),2019-03-03,06:01～07:00,0.0308,0.0271,0.0288,
調布 (Chofu),2019-03-03,05:01～06:00,0.0310,0.0267,0.0287,
調布 (Chofu),2019-03-03,04:01～05:00,0.0312,0.0271,0.0289,
調布 (Chofu),2019-03-03,03:01～04:00,0.0310,0.0270,0.0290,
調布 (Chofu),2019-03-03,02:01～03:00,0.0311,0.0269,0.0288,
調布 (Chofu),2019-03-03,01:01～02:00,0.0300,0.0268,0.0285,
調布 (Chofu),2019-03-03,00:01～01:00,0.0303,0.0260,0.0282,
調布 (Chofu),2019-03-02,23:01～24:00,0.0304,0.0261,0.0281,
調布 (Chofu),2019-03-02,22:01～23:00,0.0298,0.0257,0.0281,
調布 (Chofu),2019-03-02,21:01～22:00,0.0300,0.0260,0.0282,
調布 (Chofu),2019-03-02,20:01～21:00,0.0306,0.0258,0.0280,
調布 (Chofu),2019-03-02,19:01～20:00,0.0307,0.0251,0.0281,
調布 (Chofu),2019-03-02,18:01～19:00,0.0294,0.0260,0.0277,
調布 (Chofu),2019-03-02,17:01～18:00,0.0295,0.0261,0.0277,
調布 (Chofu),2019-03-02,16:01～17:00,0.0300,0.0265,0.0280,
調布 (Chofu),2019-03-02,15:01～16:00,0.0297,0.0261,0.0278,
調布 (Chofu),2019-03-02,14:01～15:00,0.0298,0.0255,0.0279,
調布 (Chofu),2019-03-02,13:01～14:00,0.0314,0.0262,0.0280,
調布 (Chofu),2019-03-02,12:01～13:00,0.0300,0.0263,0.0280,
調布 (Chofu),2019-03-02,11:01～12:00,0.0303,0.0265,0.0282,
調布 (Chofu),2019-03-02,10:01～11:00,0.0298,0.0255,0.0281,
調布 (Chofu),2019-03-02,09:01～10:00,0.0307,0.0268,0.0286,
調布 (Chofu),2019-03-02,08:01～09:00,0.0311,0.0267,0.0288,
調布 (Chofu),2019-03-02,07:01～08:00,0.0308,0.0262,0.0285,
調布 (Chofu),2019-03-02,06:01～07:00,0.0308,0.0264,0.0288,
調布 (Chofu),2019-03-02,05:01～06:00,0.0305,0.0262,0.0282,
調布 (Chofu),2019-03-02,04:01～05:00,0.0304,0.0262,0.0283,
調布 (Chofu),2019-03-02,03:01～04:00,0.0306,0.0264,0.0283,
調布 (Chofu),2019-03-02,02:01～03:00,0.0293,0.0262,0.0280,
調布 (Chofu),2019-03-02,01:01～02:00,0.0301,0.0265,0.0282,
調布 (Chofu),2019-03-02,00:01～01:00,0.0297,0.0257,0.0278,
調布 (Chofu),2019-03-01,23:01～24:00,0.0300,0.0261,0.0281,
調布 (Chofu),2019-03-01,22:01～23:00,0.0302,0.0261,0.0280,
調布 (Chofu),2019-03-01,21:01～22:00,0.0300,0.0263,0.0282,
調布 (Chofu),2019-03-01,20:01～21:00,0.0302,0.0264,0.0282,
調布 (Chofu),2019-03-01,19:01～20:00,0.0301,0.0261,0.0279,
調布 (Chofu),2019-03-01,18:01～19:00,0.0303,0.0268,0.0281,
調布 (Chofu),2019-03-01,17:01～18:00,0.0294,0.0257,0.0279,
調布 (Chofu),2019-03-01,16:01～17:00,0.0295,0.0258,0.0278,
調布 (Chofu),2019-03-01,15:01～16:00,0.0298,0.0259,0.0279,
調布 (Chofu),2019-03-01,14:01～15:00,0.0304,0.0257,0.0281,
調布 (Chofu),2019-03-01,13:01～14:00,0.0300,0.0255,0.0279,
調布 (Chofu),2019-03-01,12:01～13:00,0.0305,0.0263,0.0280,
調布 (Chofu),2019-03-01,11:01～12:00,0.0303,0.0269,0.0285,
調布 (Chofu),2019-03-01,10:01～11:00,0.0310,0.0262,0.0288,
調布 (Chofu),2019-03-01,09:01～10:00,0.0313,0.0268,0.0290,
調布 (Chofu),2019-03-01,08:01～09:00,0.0336,0.0282,0.0311,
調布 (Chofu),2019-03-01,07:01～08:00,0.0366,0.0323,0.0344,
調布 (Chofu),2019-03-01,06:01～07:00,0.0352,0.0303,0.0325,
調布 (Chofu),2019-03-01,05:01～06:00,0.0363,0.0306,0.0336,
調布 (Chofu),2019-03-01,04:01～05:00,0.0366,0.0309,0.0332,
調布 (Chofu),2019-03-01,03:01～04:00,0.0340,0.0289,0.0319,
調布 (Chofu),2019-03-01,02:01～03:00,0.0329,0.0288,0.0309,
調布 (Chofu),2019-03-01,01:01～02:00,0.0350,0.0303,0.0326,
調布 (Chofu),2019-03-01,00:01～01:00,0.0352,0.0284,0.0309,
調布 (Chofu),2019-02-28,23:01～24:00,0.0336,0.0276,0.0312,
調布 (Chofu),2019-02-28,22:01～23:00,0.0325,0.0278,0.0300,
調布 (Chofu),2019-02-28,21:01～22:00,0.0350,0.0285,0.0319,
調布 (Chofu),2019-02-28,20:01～21:00,0.0427,0.0336,0.0376,
調布 (Chofu),2019-02-28,19:01～20:00,0.0490,0.0380,0.0429,
調布 (Chofu),2019-02-28,18:01～19:00,0.0520,0.0443,0.0479,
調布 (Chofu),2019-02-28,17:01～18:00,0.0504,0.0420,0.0461,
調布 (Chofu),2019-02-28,16:01～17:00,0.0507,0.0436,0.0469,
調布 (Chofu),2019-02-28,15:01～16:00,0.0532,0.0461,0.0493,
調布 (Chofu),2019-02-28,14:01～15:00,0.0539,0.0468,0.0501,
調布 (Chofu),2019-02-28,13:01～14:00,0.0523,0.0444,0.0482,
調布 (Chofu),2019-02-28,12:01～13:00,0.0480,0.0404,0.0445,
調布 (Chofu),2019-02-28,11:01～12:00,0.0453,0.0364,0.0413,
調布 (Chofu),2019-02-28,10:01～11:00,0.0489,0.0403,0.0441,
調布 (Chofu),2019-02-28,09:01～10:00,0.0488,0.0363,0.0413,
調布 (Chofu),2019-02-28,08:01～09:00,0.0413,0.0351,0.0377,
調布 (Chofu),2019-02-28,07:01～08:00,0.0444,0.0365,0.0401,
調布 (Chofu),2019-02-28,06:01～07:00,0.0433,0.0291,0.0361,
調布 (Chofu),2019-02-28,05:01～06:00,0.0315,0.0275,0.0298,
調布 (Chofu),2019-02-28,04:01～05:00,0.0318,0.0269,0.0293,
調布 (Chofu),2019-02-28,03:01～04:00,0.0315,0.0273,0.0294,
調布 (Chofu),2019-02-28,02:01～03:00,0.0316,0.0276,0.0297,
調布 (Chofu),2019-02-28,01:01～02:00,0.0321,0.0282,0.0302,
調布 (Chofu),2019-02-28,00:01～01:00,0.0344,0.0293,0.0314,
調布 (Chofu),2019-02-27,23:01～24:00,0.0332,0.0301,0.0315,
調布 (Chofu),2019-02-27,22:01～23:00,0.0349,0.0305,0.0329,
調布 (Chofu),2019-02-27,21:01～22:00,0.0350,0.0306,0.0334,
調布 (Chofu),2019-02-27,20:01～21:00,0.0338,0.0281,0.0308,
調布 (Chofu),2019-02-27,19:01～20:00,0.0308,0.0270,0.0287,
調布 (Chofu),2019-02-27,18:01～19:00,0.0305,0.0267,0.0288,
調布 (Chofu),2019-02-27,17:01～18:00,0.0305,0.0269,0.0287,
調布 (Chofu),2019-02-27,16:01～17:00,0.0307,0.0266,0.0288,
調布 (Chofu),2019-02-27,15:01～16:00,0.0308,0.0265,0.0290,
調布 (Chofu),2019-02-27,14:01～15:00,0.0306,0.0267,0.0288,
調布 (Chofu),2019-02-27,13:01～14:00,0.0304,0.0271,0.0288,
調布 (Chofu),2019-02-27,12:01～13:00,0.0308,0.0275,0.0289,
調布 (Chofu),2019-02-27,11:01～12:00,0.0311,0.0271,0.0291,
調布 (Chofu),2019-02-27,10:01～11:00,0.0311,0.0274,0.0291,
調布 (Chofu),2019-02-27,09:01～10:00,0.0311,0.0273,0.0291,
調布 (Chofu),2019-02-27,08:01～09:00,0.0311,0.0268,0.0291,
調布 (Chofu),2019-02-27,07:01～08:00,0.0310,0.0269,0.0294,
調布 (Chofu),2019-02-27,06:01～07:00,0.0312,0.0277,0.0293,
調布 (Chofu),2019-02-27,05:01～06:00,0.0308,0.0268,0.0289,
調布 (Chofu),2019-02-27,04:01～05:00,0.0305,0.0272,0.0288,
調布 (Chofu),2019-02-27,03:01～04:00,0.0310,0.0270,0.0288,
調布 (Chofu),2019-02-27,02:01～03:00,0.0315,0.0272,0.0291,
調布 (Chofu),2019-02-27,01:01～02:00,0.0316,0.0272,0.0289,
調布 (Chofu),2019-02-27,00:01～01:00,0.0306,0.0265,0.0286,
調布 (Chofu),2019-02-26,23:01～24:00,0.0304,0.0270,0.0288,
調布 (Chofu),2019-02-26,22:01～23:00,0.0315,0.0273,0.0292,
調布 (Chofu),2019-02-26,21:01～22:00,0.0312,0.0273,0.0290,
調布 (Chofu),2019-02-26,20:01～21:00,0.0314,0.0273,0.0290,
調布 (Chofu),2019-02-26,19:01～20:00,0.0305,0.0273,0.0291,
調布 (Chofu),2019-02-26,18:01～19:00,0.0307,0.0269,0.0290,
調布 (Chofu),2019-02-26,17:01～18:00,0.0304,0.0278,0.0292,
調布 (Chofu),2019-02-26,16:01～17:00,0.0317,0.0272,0.0291,
調布 (Chofu),2019-02-26,15:01～16:00,0.0315,0.0274,0.0293,
調布 (Chofu),2019-02-26,14:01～15:00,0.0311,0.0270,0.0290,
調布 (Chofu),2019-02-26,13:01～14:00,0.0315,0.0275,0.0291,
調布 (Chofu),2019-02-26,12:01～13:00,0.0322,0.0269,0.0294,
調布 (Chofu),2019-02-26,11:01～12:00,0.0311,0.0280,0.0295,
調布 (Chofu),2019-02-26,10:01～11:00,0.0311,0.0282,0.0294,
調布 (Chofu),2019-02-26,09:01～10:00,0.0313,0.0275,0.0295,
調布 (Chofu),2019-02-26,08:01～09:00,0.0312,0.0267,0.0293,
調布 (Chofu),2019-02-26,07:01～08:00,0.0312,0.0273,0.0294,
調布 (Chofu),2019-02-26,06:01～07:00,0.0311,0.0272,0.0292,
調布 (Chofu),2019-02-26,05:01～06:00,0.0320,0.0273,0.0293,
調布 (Chofu),2019-02-26,04:01～05:00,0.0309,0.0272,0.0293,
調布 (Chofu),2019-02-26,03:01～04:00,0.0308,0.0263,0.0291,
調布 (Chofu),2019-02-26,02:01～03:00,0.0317,0.0277,0.0294,
調布 (Chofu),2019-02-26,01:01～02:00,0.0313,0.0273,0.0293,
調布 (Chofu),2019-02-26,00:01～01:00,0.0315,0.0267,0.0292,
調布 (Chofu),2019-02-25,23:01～24:00,0.0319,0.0272,0.0291,
調布 (Chofu),2019-02-25,22:01～23:00,0.0314,0.0277,0.0292,
調布 (Chofu),2019-02-25,21:01～22:00,0.0320,0.0273,0.0296,
調布 (Chofu),2019-02-25,20:01～21:00,0.0320,0.0273,0.0294,
調布 (Chofu),2019-02-25,19:01～20:00,0.0313,0.0267,0.0291,
調布 (Chofu),2019-02-25,18:01～19:00,0.0307,0.0267,0.0289,
調布 (Chofu),2019-02-25,17:01～18:00,0.0305,0.0269,0.0287,
調布 (Chofu),2019-02-25,16:01～17:00,0.0304,0.0274,0.0289,
調布 (Chofu),2019-02-25,15:01～16:00,0.0321,0.0274,0.0295,
調布 (Chofu),2019-02-25,14:01～15:00,0.0314,0.0278,0.0293,
調布 (Chofu),2019-02-25,13:01～14:00,0.0315,0.0278,0.0298,
調布 (Chofu),2019-02-25,12:01～13:00,0.0329,0.0284,0.0305,
調布 (Chofu),2019-02-25,11:01～12:00,0.0336,0.0285,0.0306,
調布 (Chofu),2019-02-25,10:01～11:00,0.0337,0.0293,0.0313,
調布 (Chofu),2019-02-25,09:01～10:00,0.0330,0.0289,0.0311,
調布 (Chofu),2019-02-25,08:01～09:00,0.0324,0.0286,0.0310,
調布 (Chofu),2019-02-25,07:01～08:00,0.0332,0.0289,0.0309,
調布 (Chofu),2019-02-25,06:01～07:00,0.0328,0.0285,0.0305,
調布 (Chofu),2019-02-25,05:01～06:00,0.0321,0.0280,0.0301,
調布 (Chofu),2019-02-25,04:01～05:00,0.0325,0.0278,0.0301,
調布 (Chofu),2019-02-25,03:01～04:00,0.0324,0.0278,0.0301,
調布 (Chofu),2019-02-25,02:01～03:00,0.0327,0.0278,0.0306,
調布 (Chofu),2019-02-25,01:01～02:00,0.0324,0.0277,0.0300,
調布 (Chofu),2019-02-25,00:01～01:00,0.0314,0.0279,0.0294,
